Regional Weather Roundup
Issued by NWS State College, PA

Home | Current Version | Previous Version | Graphics & Text | Print | Product List | Glossary Off
Versions: 1 2 3 4 5 6 7 8 9 10 11 12 13 14 15 16 17 18 19 20 21 22 23 24 25 26 27 28 29 30 31 32 33 34 35 36 37 38 39 40 41 42 43 44 45 46 47 48 49 50

000
ASUS41 KCTP 240103
RWRCTP

REGIONAL WEATHER ROUNDUP
NATIONAL WEATHER SERVICE STATE COLLEGE PA
900 PM EDT SAT JUL 23 2016

Note: "fair" indicates few or no clouds below 12,000 feet with no
significant weather and/or obstructions to visibility.

* = STATION THAT DOES NOT REPORT PRECIPITATION /E.G. RAIN...SNOW...ETC/
    THUNDER OR FOG.

PAZ002>004-007>009-013>016-020>023-029>032-240200-
WESTERN PENNSYLVANIA

CITY           SKY/WX    TMP DP  RH WIND       PRES   REMARKS
ERIE           CLEAR     80  64  58 W5        29.96S
MEADVILLE      CLEAR     75  59  57 N3        30.00F
FRANKLIN*      CLEAR     75  57  53 CALM      30.03S
NEW CASTLE     FAIR      80  63  55 NE3       29.99R
BEAVER COUNTY  NOT AVBL
BUTLER*        CLEAR     77  64  65 CALM      30.00S
PITTSBURGH INT MOCLDY    78  71  79 CALM      29.98R
PITTSBURGH     CLEAR     77  70  79 W3        29.98R
INDIANA*       CLEAR     81  63  54 CALM      30.02R
LATROBE        CLEAR     77  72  83 SW6       29.99S
WASHINGTON CO* MOCLDY    75  70  83 S3        29.99R
$$

PAZ004>006-010>012-017>019-024>028-033>037-041-042-045-046-049>053-240200-
CENTRAL PENNSYLVANIA

CITY           SKY/WX    TMP DP  RH WIND       PRES   REMARKS
BRADFORD       CLEAR     71  58  63 CALM      30.03R
DUBOIS         CLEAR     78  58  49 N6        30.01R
CLEARFIELD     CLEAR     80  55  42 N6        29.99R
JOHNSTOWN      CLEAR     75  66  73 W5        30.03S
ALTOONA        CLEAR     78  68  71 W3        29.98R
STATE COLLEGE  CLEAR     84  54  34 N7        29.96R
WILLIAMSPORT   CLEAR     81  56  42 S3        29.89R
SELINSGROVE    CLEAR     86  54  33 NW7       29.89R
FT INDIANTOWN  PTCLDY    87  55  32 NW5       29.88R
CAPITAL CITY   CLEAR     91  53  27 CALM      29.88R
HARRISBURG     PTCLDY    83  72  69 E6        29.87R
YORK           CLEAR     78  72  81 CALM      29.89S
$$

PAZ038>040-043-044-047-048-054-055-060>062-067>071-240200-
EASTERN PENNSYLVANIA

CITY           SKY/WX    TMP DP  RH WIND       PRES   REMARKS
SCRANTON       CLEAR     85  54  34 N12       29.92R
MOUNT POCONO   CLEAR     78  32  18 N9        29.98R
ALLENTOWN      PTCLDY    84  61  45 N5        29.87R
QUAKERTOWN*    PTCLDY    82  68  61 CALM      29.89S
READING        CLEAR     82  67  60 S3        29.87S
LANCASTER      CLEAR     76  70  82 CALM      29.89R
COATESVILLE    CLEAR     75  68  78 W6        29.92R
POTTSTOWN      PTCLDY    81  67  62 SW5       29.89S
BLUE BELL      CLEAR     77  68  73 CALM      29.87S
DOYLESTOWN     PTCLDY    82  65  56 SW5       29.87S
WILLOW GROVE   NOT AVBL
NORTH PHILA    PTCLDY    82  70  66 SW8       29.88S
PHILADELPHIA   PTCLDY    83  70  64 SW6       29.88R
$$




USA.gov is the U.S. government's official web portal to all federal, state and local government web resources and services.